Change the Weather History Date:

Thursday, February 6, 2014

  Actual Average Record
Temperature  
Mean Temperature 86 °F -  
Max Temperature 92 °F 86 °F 92 °F (2014)
Min Temperature 80 °F 76 °F 69 °F (2008)
Cooling Degree Days 21    
Growing Degree Days 36 (Base 50)    
Moisture  
Dew Point 75 °F    
Average Humidity 73    
Maximum Humidity 97    
Minimum Humidity 47    
Precipitation  
Precipitation 0.00 in 0.09 in - ()
Sea Level Pressure  
Sea Level Pressure 29.72 in    
Wind  
Wind Speed 14 mph ()    
Max Wind Speed 18 mph    
Max Gust Speed -    
Visibility 9.7 miles    
Events      
Averages and records for this station are not official NWS values.
T = Trace of Precipitation, MM = Missing Value Source: Averaged Metar Reports

Daily Weather History Graph

Daily Weather History Graph

Search for Another Location

Airport or City:

Trip Planner

Search our weather history database for the weather conditions in past years. The results will help you decide how hot, cold, wet, or windy it might be!

Date:

Astronomy

Feb. 06, 2014 Rise Set
Actual Time 6:26 AM EAT 6:48 PM EAT
Civil Twilight 6:04 AM EAT 7:10 PM EAT
Nautical Twilight 5:39 AM EAT 7:35 PM EAT
Astronomical Twilight 5:13 AM EAT 8:00 PM EAT
Moon 12:06 PM EAT No Moon Set
Length of Visible Light 13h 05m
Length of Day
12h 22m
Waxing Crescent, 46% of the Moon is Illuminated
Feb 6
Waxing Crescent
Feb 6
First Quarter
Feb 15
Full
Feb 22
Last Quarter
Mar 1
New

Hourly Weather History & Observations

Time (EAT) Temp. Heat Index Dew Point Humidity Pressure Visibility Wind Dir Wind Speed Gust Speed Precip Events Conditions
12:00 AM 82 °F - 81 °F 97% 29.75 in 19 mi NNE 18.4 mph - -   Mostly Cloudy
12:00 AM 82.4 °F 89.5 °F 75.2 °F 79% 29.74 in 6.2 mi NNE 18.4 mph - N/A   Mostly Cloudy
1:00 AM 82.4 °F 89.5 °F 75.2 °F 79% 29.71 in 6.2 mi NNE 18.4 mph - N/A   Mostly Cloudy
2:00 AM 80.6 °F 86.2 °F 75.2 °F 84% 29.71 in 6.2 mi North 16.1 mph - N/A   Mostly Cloudy
3:00 AM 81 °F - 75 °F 76% 29.71 in 19 mi North 13.8 mph - -   Partly Cloudy
3:00 AM 80.6 °F 86.2 °F 75.2 °F 84% 29.71 in 6.2 mi North 13.8 mph - N/A   Scattered Clouds
4:00 AM 80.6 °F 86.2 °F 75.2 °F 84% 29.71 in 6.2 mi North 13.8 mph - N/A   Scattered Clouds
6:00 AM 81 °F - 74 °F 74% 29.75 in 19 mi North 11.5 mph - -   Mostly Cloudy
6:00 AM 80.6 °F 85.4 °F 73.4 °F 79% 29.74 in 6.2 mi North 11.5 mph - N/A   Mostly Cloudy
7:00 AM 80.6 °F 86.2 °F 75.2 °F 84% 29.74 in 6.2 mi North 12.7 mph - N/A   Mostly Cloudy
8:00 AM 82.4 °F 89.5 °F 75.2 °F 79% 29.77 in 6.2 mi NNE 11.5 mph - N/A   Mostly Cloudy
9:00 AM 85 °F - 76 °F 68% 29.79 in 19 mi North 15.0 mph - -   Partly Cloudy
9:00 AM 84.2 °F 92.3 °F 75.2 °F 74% 29.77 in 6.2 mi North 15.0 mph - N/A   Mostly Cloudy
10:00 AM 86.0 °F 95.1 °F 75.2 °F 70% 29.77 in 6.2 mi NNE 17.3 mph - N/A   Mostly Cloudy
11:00 AM 89.6 °F 99.8 °F 75.2 °F 62% 29.77 in 6.2 mi NNE 16.1 mph - N/A   Mostly Cloudy
12:00 PM 90 °F - 74 °F 51% 29.75 in 19 mi NNE 16.1 mph - -   Mostly Cloudy
12:00 PM 89.6 °F 98.2 °F 73.4 °F 59% 29.74 in 6.2 mi NNE 16.1 mph - N/A   Mostly Cloudy
2:00 PM 91.4 °F 100.1 °F 73.4 °F 55% 29.68 in 6.2 mi NNE 15.0 mph - N/A   Mostly Cloudy
3:00 PM 91 °F - 73 °F 47% 29.79 in 19 mi ENE 16.1 mph - -   Partly Cloudy
3:00 PM 91.4 °F 100.1 °F 73.4 °F 55% 29.65 in 6.2 mi ENE 16.1 mph - N/A   Scattered Clouds
4:00 PM 89.6 °F 99.8 °F 75.2 °F 62% 29.62 in 6.2 mi ENE 17.3 mph - N/A   Scattered Clouds
6:00 PM 85 °F - 75 °F 66% 29.65 in 19 mi NNE 17.3 mph - -   Partly Cloudy
6:00 PM 84.2 °F 92.3 °F 75.2 °F 74% 29.65 in 6.2 mi NNE 17.3 mph - N/A   Scattered Clouds
7:00 PM 84.2 °F 92.3 °F 75.2 °F 74% 29.68 in 6.2 mi NE 17.3 mph - N/A   Scattered Clouds
8:00 PM 82.4 °F 89.5 °F 75.2 °F 79% 29.71 in 6.2 mi NE 15.0 mph - N/A   Scattered Clouds
9:00 PM 82 °F - 77 °F 79% 29.71 in 19 mi NE 15.0 mph - -   Partly Cloudy
9:00 PM 82.4 °F 90.9 °F 77.0 °F 84% 29.71 in 6.2 mi NE 15.0 mph - N/A   Scattered Clouds
10:00 PM 82.4 °F 90.9 °F 77.0 °F 84% 29.71 in 6.2 mi NE 15.0 mph - N/A   Scattered Clouds
11:00 PM 82.4 °F 88.2 °F 73.4 °F 74% 29.74 in 6.2 mi NNE 12.7 mph - N/A   Scattered Clouds